FW3197 Weather Reports


time (UTC)temp
F
wind
direction
speed
knots
gust
knots
rain 1hr
in
rain 24hr
in
rain mn
in
humidity
%
barometer
mb
20260505041540 58 124 0.9 5.2 0.00 0.00 0.00 62 1009.1
20260505040021 58 133 0.0 4.3 0.00 0.00 0.00 61 1009.1
20260505034520 58 207 0.0 6.1 0.00 0.00 0.00 60 1009.0
20260505033020 59 163 0.9 5.2 0.00 0.00 0.00 59 1009.1
20260505031519 59 131 0.9 6.1 0.00 0.00 0.00 58 1009.0
20260505030019 60 204 0.0 3.5 0.00 0.00 0.00 57 1008.9
20260505024520 60 261 1.7 5.2 0.00 0.00 0.00 56 1008.9
20260505023016 60 122 0.9 4.3 0.00 0.00 0.00 55 1008.9
20260505021515 61 219 0.0 5.2 0.00 0.00 0.00 55 1008.9
20260505020018 61 138 0.9 4.3 0.00 0.00 0.00 54 1008.9
20260505014512 62 252 0.9 7.0 0.00 0.00 0.00 53 1008.8
20260505013016 63 80 1.7 7.8 0.00 0.00 0.00 52 1008.5
20260505011511 63 221 0.9 6.1 0.00 0.00 0.00 51 1008.3
20260505010009 64 300 0.9 3.5 0.00 0.00 0.00 50 1007.9
20260505004508 65 136 1.7 7.8 0.00 0.00 0.00 48 1007.6
20260505003006 65 120 3.5 12.2 0.00 0.00 0.00 47 1007.2
20260505001505 65 264 2.6 5.2 0.00 0.00 0.00 44 1006.7
20260505000004 67 134 0.0 0.9 0.00 0.00 0.00 41 1006.2
20260504234504 67 294 0.9 3.5 0.00 0.00 0.00 40 1006.1
20260504233002 68 225 0.0 2.6 0.00 0.00 0.00 39 1005.9
20260504231500 70 251 0.9 6.1 0.00 0.00 0.00 37 1005.7
20260504230104 70 217 0.9 5.2 0.00 0.00 0.00 37 1005.4
20260504224610 71 274 1.7 3.5 0.00 0.00 0.00 36 1005.2
20260504223058 72 280 0.9 5.2 0.00 0.00 0.00 35 1005.2
20260504221557 72 129 1.7 6.1 0.00 0.00 0.00 34 1005.2
20260504220059 72 187 0.0 6.1 0.00 0.00 0.00 35 1005.2
20260504214554 72 139 1.7 7.8 0.00 0.00 0.00 36 1005.2
20260504213124 72 133 0.9 4.3 0.00 0.00 0.00 35 1005.2
20260504211555 72 255 1.7 9.6 0.00 0.00 0.00 35 1005.2
20260504210050 72 98 2.6 7.0 0.00 0.00 0.00 34 1005.3
20260504204552 72 164 0.9 9.6 0.00 0.00 0.00 34 1005.3
20260504203059 73 247 1.7 4.3 0.00 0.00 0.00 34 1005.4
20260504201547 74 157 1.7 7.0 0.00 0.00 0.00 33 1005.2
20260504200049 73 222 1.7 7.0 0.00 0.00 0.00 33 1005.3
20260504194557 73 115 1.7 8.7 0.00 0.00 0.00 32 1005.3
20260504193052 73 222 0.9 12.2 0.00 0.00 0.00 35 1005.2
20260504191541 73 141 2.6 9.6 0.00 0.00 0.00 32 1005.4
20260504190041 73 291 2.6 13.0 0.00 0.00 0.00 33 1005.7
20260504184538 73 141 2.6 12.2 0.00 0.00 0.00 32 1005.7
20260504183037 73 181 2.6 8.7 0.00 0.00 0.00 32 1005.9
20260504181534 72 249 2.6 7.8 0.00 0.00 0.00 33 1005.8
20260504180031 71 167 1.7 9.6 0.00 0.00 0.00 36 1005.9
20260504174530 70 275 3.5 12.2 0.00 0.00 0.00 33 1005.9
20260504173036 70 253 1.7 11.3 0.00 0.00 0.00 36 1006.1
20260504171527 70 285 2.6 10.4 0.00 0.00 0.00 36 1006.0
20260504140111 63 266 0.9 7.0 0.00 0.00 0.00 47 1008.0
20260504081505 45 71 0.0 0.9 0.00 0.00 0.00 64 1009.3
20260504050023 36 356 0.0 0.0 0.00 0.01 0.00 80 1009.3
20260504044535 36 356 0.0 0.0 0.00 0.01 0.00 80 1009.3
20260504043122 36 356 0.0 0.0 0.00 0.01 0.00 79 1009.2